South Bend, IN

2:48 AM EDT on March 23, 2017 (GMT -0400)
South Bend Regional

Weather History for KSBN - October, 2012

Change the Weather History Date:

Tuesday, October 2, 2012

  Actual Average Record
Temperature  
Mean Temperature 60 °F 57 °F  
Max Temperature 69 °F 67 °F 87 °F (1922)
Min Temperature 51 °F 47 °F 22 °F (1908)
Degree Days  
Heating Degree Days 5 9  
Month to date heating degree days 16 17  
Since 1 July heating degree days 159 151  
Cooling Degree Days 0 1  
Month to date cooling degree days 0 2  
Year to date cooling degree days 1108 766  
Growing Degree Days 10 (Base 50)    
Moisture  
Dew Point 48 °F    
Average Humidity 66    
Maximum Humidity 83    
Minimum Humidity 48    
Precipitation  
Precipitation T in 0.10 in 2.28 in (2014)
Month to date precipitation T 0.21  
Year to date precipitation 26.61 29.01  
Snow  
Snow 0.00 in 0.00 in T in (1974)
Month to date snowfall 0.0 0.0  
Since 1 July snowfall 0.0 T  
Since 1 September snowfall T  
Snow Depth 0.00 in    
Sea Level Pressure  
Sea Level Pressure 29.85 in    
Wind  
Wind Speed 7 mph (ENE)    
Max Wind Speed 15 mph    
Max Gust Speed 22 mph    
Visibility 10 miles    
Events Rain    
T = Trace of Precipitation, MM = Missing Value Source: NWS Daily Summary

Daily Weather History Graph

Daily Weather History Graph

Search for Another Location

Airport or City:

Trip Planner

Search our weather history database for the weather conditions in past years. The results will help you decide how hot, cold, wet, or windy it might be!

Date:

Astronomy

Oct. 02, 2012 Rise Set
Actual Time 7:43 AM EDT 7:24 PM EDT
Civil Twilight 7:16 AM EDT 7:52 PM EDT
Nautical Twilight 6:43 AM EDT 8:24 PM EDT
Astronomical Twilight 6:11 AM EDT 8:56 PM EDT
Moon 8:34 PM EDT (10/2) 10:13 AM EDT (10/2)
Length of Visible Light 12h 36m
Length of Day
11h 40m
Waning Gibbous, 94% of the Moon is Illuminated
Oct 2
Waning Gibbous
Oct 8
Last Quarter
Oct 15
New
Oct 21
First Quarter
Oct 29
Full

Hourly Weather History & Observations

Time (EDT) Temp. Dew Point Humidity Pressure Visibility Wind Dir Wind Speed Gust Speed Precip Events Conditions
12:54 AM 55.9 °F 46.9 °F 72% 29.82 in 10.0 mi North 6.9 mph - N/A   Partly Cloudy
1:54 AM 55.0 °F 46.0 °F 72% 29.83 in 10.0 mi NNE 4.6 mph - N/A   Mostly Cloudy
2:54 AM 55.4 °F 44.6 °F 67% 29.81 in 10.0 mi ENE 4.6 mph - N/A   Mostly Cloudy
3:54 AM 55.4 °F 46.4 °F 72% 29.82 in 10.0 mi NE 4.6 mph - N/A Rain Light Rain
4:54 AM 55.0 °F 46.9 °F 74% 29.81 in 10.0 mi NE 5.8 mph - 0.00 in   Overcast
5:54 AM 55.0 °F 46.9 °F 74% 29.83 in 10.0 mi NE 3.5 mph - 0.00 in Rain Light Rain
6:54 AM 53.1 °F 46.9 °F 80% 29.85 in 10.0 mi North 4.6 mph - 0.00 in   Mostly Cloudy
7:54 AM 52.0 °F 46.9 °F 83% 29.86 in 10.0 mi North 6.9 mph - N/A   Overcast
8:54 AM 54.0 °F 46.9 °F 77% 29.87 in 10.0 mi NNE 6.9 mph - N/A   Partly Cloudy
9:54 AM 59.0 °F 46.9 °F 64% 29.87 in 10.0 mi NNE 10.4 mph - N/A   Clear
10:54 AM 62.1 °F 46.9 °F 58% 29.87 in 10.0 mi ENE 8.1 mph - N/A   Partly Cloudy
11:54 AM 64.0 °F 45.0 °F 50% 29.86 in 10.0 mi NE 6.9 mph - N/A   Overcast
12:54 PM 64.9 °F 46.0 °F 50% 29.85 in 10.0 mi East 11.5 mph - N/A   Overcast
1:54 PM 66.0 °F 48.0 °F 52% 29.85 in 10.0 mi NNE 12.7 mph - N/A   Overcast
2:54 PM 66.9 °F 48.9 °F 52% 29.83 in 10.0 mi NE 8.1 mph 18.4 mph N/A   Overcast
3:54 PM 68.0 °F 48.9 °F 50% 29.83 in 10.0 mi East 8.1 mph - N/A   Overcast
4:54 PM 66.9 °F 48.9 °F 52% 29.83 in 10.0 mi ENE 6.9 mph - N/A   Overcast
5:54 PM 66.0 °F 50.0 °F 56% 29.83 in 10.0 mi East 5.8 mph - N/A   Overcast
6:54 PM 66.0 °F 50.0 °F 56% 29.86 in 10.0 mi East 5.8 mph - N/A   Overcast
7:54 PM 64.9 °F 51.1 °F 61% 29.87 in 10.0 mi East 5.8 mph - N/A   Overcast
8:54 PM 64.0 °F 51.1 °F 63% 29.89 in 10.0 mi East 5.8 mph - N/A   Overcast
9:54 PM 64.0 °F 51.1 °F 63% 29.89 in 10.0 mi East 5.8 mph - N/A   Overcast
10:54 PM 63.0 °F 52.0 °F 67% 29.90 in 10.0 mi East 5.8 mph - N/A   Overcast
11:54 PM 62.1 °F 53.1 °F 72% 29.91 in 10.0 mi ESE 8.1 mph - N/A   Overcast